FW8483 Weather Reports


Display with metric or nautical units.
time (UTC)temp
F
wind
direction
speed
MPH
gust
MPH
rain 1hr
in
rain 24hr
in
rain mn
in
humidity
%
barometer
mb
20260507091003 74 246 2.0 7.0 0.00 0.00 0.00 90 1011.9
20260507090504 74 204 3.0 8.0 0.00 0.00 0.00 90 1012.0
20260507090020 74 217 1.0 8.0 0.00 0.00 0.00 90 1012.1
20260507085506 74 247 1.0 5.0 0.00 0.00 0.00 90 1012.3
20260507085007 74 192 2.0 7.0 0.00 0.00 0.00 90 1012.3
20260507084532 74 237 0.0 7.0 0.00 0.00 0.00 90 1012.3
20260507084009 74 233 2.0 6.0 0.00 0.00 0.00 91 1012.3
20260507083508 74 284 1.0 11.0 0.00 0.00 0.00 91 1012.3
20260507083031 74 254 2.0 12.0 0.00 0.00 0.00 91 1012.3
20260507082507 74 165 2.0 12.0 0.00 0.00 0.00 91 1012.2
20260507082004 74 231 3.0 8.0 0.00 0.00 0.00 91 1012.3
20260507081515 74 257 2.0 8.0 0.00 0.00 0.00 91 1012.4
20260507081004 74 217 2.0 10.0 0.00 0.00 0.00 91 1012.4
20260507080506 74 188 4.0 10.0 0.00 0.00 0.00 91 1012.5
20260507080015 74 175 3.0 7.0 0.00 0.00 0.00 91 1012.4
20260507075503 74 173 2.0 8.0 0.00 0.00 0.00 91 1012.5
20260507075006 74 186 3.0 9.0 0.00 0.00 0.00 91 1012.4
20260507074537 74 173 4.0 9.0 0.00 0.00 0.00 91 1012.5
20260507074006 74 198 3.0 11.0 0.00 0.00 0.00 91 1012.4
20260507073507 74 221 4.0 11.0 0.00 0.00 0.00 91 1012.5
20260507073024 74 174 3.0 10.0 0.00 0.00 0.00 91 1012.6
20260507072509 74 204 5.0 9.0 0.00 0.00 0.00 91 1012.7
20260507072011 74 200 1.0 8.0 0.00 0.00 0.00 91 1012.9
20260507071525 74 286 1.0 7.0 0.00 0.00 0.00 91 1012.9
20260507071004 73 319 1.0 7.0 0.00 0.00 0.00 91 1013.1
20260507070504 73 139 2.0 6.0 0.00 0.00 0.00 91 1013.1
20260507070016 73 175 2.0 6.0 0.00 0.00 0.00 91 1013.1
20260507065503 73 190 2.0 7.0 0.00 0.00 0.00 91 1013.0
20260507065004 73 190 3.0 11.0 0.00 0.00 0.00 91 1012.9
20260507064521 73 191 5.0 10.0 0.00 0.00 0.00 92 1012.8
20260507064007 73 209 2.0 9.0 0.00 0.00 0.00 92 1012.6
20260507063508 73 169 5.0 12.0 0.00 0.00 0.00 92 1012.6
20260507063028 73 150 5.0 12.0 0.00 0.00 0.00 92 1012.7
20260507062509 73 207 7.0 11.0 0.00 0.00 0.00 92 1012.9
20260507062011 73 159 6.0 11.0 0.00 0.00 0.00 92 1013.1
20260507061526 73 204 3.0 12.0 0.00 0.00 0.00 92 1013.1
20260507061009 73 171 6.0 20.0 0.00 0.00 0.00 92 1013.1
20260507060509 73 148 8.0 20.0 0.00 0.00 0.00 92 1012.9
20260507060015 73 158 7.0 19.0 0.00 0.00 0.00 92 1013.0
20260507055503 73 155 8.0 19.0 0.00 0.00 0.00 92 1012.9
20260507055004 73 168 9.0 19.0 0.00 0.00 0.00 92 1013.0
20260507054519 73 153 10.0 16.0 0.00 0.00 0.00 92 1012.9
20260507054004 73 175 8.0 16.0 0.00 0.00 0.00 91 1013.0
20260507053505 73 155 8.0 13.0 0.00 0.00 0.00 91 1013.3
20260507053024 73 198 5.0 9.0 0.00 0.00 0.00 91 1013.5
20260507052512 73 180 4.0 12.0 0.00 0.00 0.00 91 1013.4
20260507052008 73 200 5.0 13.0 0.00 0.00 0.00 91 1013.5
20260507051537 73 160 5.0 13.0 0.00 0.00 0.00 91 1013.4
20260507051009 73 172 8.0 13.0 0.00 0.00 0.00 91 1013.3
20260507050506 73 154 7.0 12.0 0.00 0.00 0.00 91 1013.3
20260507050028 73 182 5.0 10.0 0.00 0.00 0.00 91 1013.5
20260507045510 73 157 4.0 10.0 0.00 0.00 0.00 91 1013.7
20260507045004 73 204 4.0 10.0 0.00 0.00 0.00 91 1013.8
20260507044517 73 166 4.0 10.0 0.00 0.00 0.00 90 1013.7
20260507044006 73 199 4.0 10.0 0.00 0.00 0.00 90 1013.9
20260507043506 73 182 5.0 10.0 0.00 0.00 0.00 90 1013.9
20260507043022 73 200 5.0 8.0 0.00 0.00 0.00 90 1014.0
20260507042506 73 208 3.0 10.0 0.00 0.00 0.00 90 1014.1
20260507042007 73 174 6.0 14.0 0.00 0.00 0.00 90 1014.0
20260507041525 73 182 5.0 14.0 0.00 0.00 0.00 89 1014.1
20260507041008 73 196 5.0 14.0 0.00 0.00 0.00 89 1014.0
20260507040509 73 196 7.0 14.0 0.00 0.00 0.00 89 1014.0
20260507040025 73 166 3.0 13.0 0.00 0.00 0.00 89 1014.0
20260507035510 73 175 9.0 13.0 0.00 0.00 0.00 88 1013.9
20260507035010 73 163 7.0 12.0 0.00 0.00 0.00 88 1013.8
20260507034547 73 163 7.0 11.0 0.00 0.00 0.00 88 1013.8
20260507034007 73 168 4.0 12.0 0.00 0.00 0.00 87 1014.0
20260507033504 73 161 6.0 15.0 0.00 0.00 0.00 87 1014.0
20260507033022 73 157 7.0 15.0 0.00 0.00 0.00 86 1014.1
20260507032506 74 180 5.0 10.0 0.00 0.00 0.00 85 1014.1
20260507032006 74 185 5.0 11.0 0.00 0.00 0.00 84 1014.2
20260507031525 74 182 6.0 11.0 0.00 0.00 0.00 84 1014.2
20260507031007 74 174 5.0 9.0 0.00 0.00 0.00 83 1014.4
20260507030506 74 193 5.0 11.0 0.00 0.00 0.00 82 1014.6
20260507030028 74 176 6.0 11.0 0.00 0.00 0.00 81 1014.5
20260507025510 74 169 5.0 9.0 0.00 0.00 0.00 80 1014.4
20260507025009 74 185 5.0 11.0 0.00 0.00 0.00 79 1014.3
20260507024545 74 169 5.0 11.0 0.00 0.00 0.00 78 1014.2
20260507024009 74 204 3.0 10.0 0.00 0.00 0.00 77 1014.2
20260507023508 74 151 4.0 10.0 0.00 0.00 0.00 76 1014.0
20260507023015 75 200 4.0 9.0 0.00 0.00 0.00 75 1013.9
20260507022508 75 186 4.0 9.0 0.00 0.00 0.00 74 1014.1
20260507022004 75 206 5.0 9.0 0.00 0.00 0.00 73 1014.0
20260507021503 75 158 6.0 8.0 0.00 0.00 0.00 73 1013.7
20260507021006 75 199 4.0 7.0 0.00 0.00 0.00 72 1013.8
20260507020503 75 174 3.0 9.0 0.00 0.00 0.00 71 1013.8
20260507020003 75 178 3.0 9.0 0.00 0.00 0.00 71 1013.7
20260507015506 75 171 4.0 7.0 0.00 0.00 0.00 69 1013.7
20260507015004 75 184 5.0 6.0 0.00 0.00 0.00 69 1013.7
20260507014512 75 175 2.0 5.0 0.00 0.00 0.00 68 1014.0
20260507014004 76 198 2.0 4.0 0.00 0.00 0.00 67 1013.8
20260507013509 76 176 1.0 6.0 0.00 0.00 0.00 67 1013.6
20260507013015 76 176 3.0 6.0 0.00 0.00 0.00 67 1013.6
20260507012509 76 170 3.0 7.0 0.00 0.00 0.00 67 1013.6
20260507012007 76 184 2.0 7.0 0.00 0.00 0.00 67 1013.8
20260507011535 76 180 4.0 6.0 0.00 0.00 0.00 67 1014.1
20260507011002 76 180 3.0 5.0 0.00 0.00 0.00 67 1014.2
20260507010503 77 186 2.0 4.0 0.00 0.00 0.00 67 1014.2
20260507010010 77 212 2.0 6.0 0.00 0.00 0.00 67 1014.1
20260507005504 77 193 2.0 6.0 0.00 0.00 0.00 67 1014.0
20260507005003 77 198 2.0 8.0 0.00 0.00 0.00 67 1013.8
20260507004507 77 172 5.0 8.0 0.00 0.00 0.00 68 1013.7
20260507004005 77 202 4.0 6.0 0.00 0.00 0.00 68 1013.8
20260507003505 78 184 3.0 6.0 0.00 0.00 0.00 69 1013.8
20260507003017 78 205 2.0 5.0 0.00 0.00 0.00 69 1014.1
20260507002504 78 202 2.0 5.0 0.00 0.00 0.00 70 1014.1
20260507002007 78 181 2.0 8.0 0.00 0.00 0.00 69 1014.0
20260507001519 79 236 3.0 8.0 0.00 0.00 0.00 70 1014.1
20260507001006 79 193 1.0 8.0 0.00 0.00 0.00 69 1014.1
20260507000508 79 199 2.0 9.0 0.00 0.00 0.00 69 1014.0
20260507000004 79 179 3.0 9.0 0.00 0.00 0.00 69 1013.9
20260506235504 79 254 2.0 11.0 0.00 0.00 0.00 68 1013.8
20260506235003 80 181 4.0 11.0 0.00 0.00 0.00 68 1013.6
20260506234528 80 178 6.0 10.0 0.00 0.00 0.00 67 1013.3
20260506234004 80 205 3.0 10.0 0.00 0.00 0.00 67 1013.4
20260506233505 81 226 6.0 10.0 0.00 0.00 0.00 66 1013.4
20260506233012 81 138 5.0 13.0 0.00 0.00 0.00 66 1013.4
20260506232508 81 190 7.0 14.0 0.00 0.00 0.00 66 1013.4
20260506232007 82 142 6.0 15.0 0.00 0.00 0.00 66 1013.5
20260506231522 82 184 4.0 15.0 0.00 0.00 0.00 65 1013.4
20260506231005 82 268 3.0 12.0 0.00 0.00 0.00 65 1013.4
20260506230506 82 98 2.0 13.0 0.00 0.00 0.00 66 1013.5
20260506230020 83 198 7.0 14.0 0.00 0.00 0.00 65 1013.5
20260506225506 83 194 5.0 16.0 0.00 0.00 0.00 64 1013.5
20260506225003 83 190 7.0 16.0 0.00 0.00 0.00 64 1013.4
20260506224506 83 157 5.0 12.0 0.00 0.00 0.00 63 1013.3
20260506224002 84 238 3.0 12.0 0.00 0.00 0.00 63 1013.2
20260506223503 84 207 5.0 12.0 0.00 0.00 0.00 62 1013.2
20260506223012 84 126 2.0 10.0 0.00 0.00 0.00 62 1013.3
20260506222504 84 225 3.0 16.0 0.00 0.00 0.00 62 1013.3
20260506222004 84 183 7.0 17.0 0.00 0.00 0.00 61 1013.2
20260506221518 84 202 9.0 17.0 0.00 0.00 0.00 61 1013.1
20260506221007 84 246 8.0 16.0 0.00 0.00 0.00 60 1013.1
20260506220507 84 212 4.0 11.0 0.00 0.00 0.00 61 1013.1
20260506220024 84 177 5.0 10.0 0.00 0.00 0.00 60 1013.4
20260506215506 84 196 5.0 12.0 0.00 0.00 0.00 62 1013.6
20260506215008 83 240 7.0 12.0 0.00 0.00 0.00 61 1013.5
20260506214515 83 165 7.0 18.0 0.00 0.00 0.00 61 1013.7
20260506214002 83 206 8.0 18.0 0.00 0.00 0.00 60 1013.7
20260506213503 84 218 3.0 12.0 0.00 0.00 0.00 60 1013.8
20260506213010 84 215 6.0 12.0 0.00 0.00 0.00 60 1013.8
20260506212503 84 175 5.0 12.0 0.00 0.00 0.00 59 1013.6
20260506212003 84 187 7.0 12.0 0.00 0.00 0.00 58 1013.7
20260506211514 84 171 6.0 14.0 0.00 0.00 0.00 57 1014.0
20260506211004 85 140 9.0 14.0 0.00 0.00 0.00 56 1013.8
20260506210507 85 209 6.0 11.0 0.00 0.00 0.00 56 1014.1
20260506210021 85 278 4.0 9.0 0.00 0.00 0.00 56 1014.1
20260506205505 85 170 3.0 9.0 0.00 0.00 0.00 54 1014.1
20260506205005 86 169 5.0 10.0 0.00 0.00 0.00 54 1014.1
20260506204526 86 189 5.0 12.0 0.00 0.00 0.00 53 1014.1
20260506204007 86 210 3.0 13.0 0.00 0.00 0.00 53 1014.2
20260506203503 87 166 3.0 13.0 0.00 0.00 0.00 55 1014.3
20260506203012 87 140 6.0 10.0 0.00 0.00 0.00 53 1014.3
20260506202504 87 152 4.0 14.0 0.00 0.00 0.00 52 1014.3
20260506202004 88 257 2.0 14.0 0.00 0.00 0.00 52 1014.4
20260506201513 88 190 3.0 9.0 0.00 0.00 0.00 52 1014.4
20260506201004 88 204 3.0 9.0 0.00 0.00 0.00 51 1014.4
20260506200503 87 229 2.0 7.0 0.00 0.00 0.00 52 1014.4
20260506200018 87 122 0.0 9.0 0.00 0.00 0.00 54 1014.5
20260506195504 86 192 5.0 9.0 0.00 0.00 0.00 51 1014.8
20260506195004 87 171 5.0 9.0 0.00 0.00 0.00 52 1014.9
20260506194524 87 218 5.0 9.0 0.00 0.00 0.00 51 1015.0
20260506194012 87 192 4.0 10.0 0.00 0.00 0.00 53 1015.0
20260506193509 87 207 4.0 10.0 0.00 0.00 0.00 50 1015.1
20260506193031 87 276 2.0 7.0 0.00 0.00 0.00 52 1015.3
20260506192503 87 228 2.0 8.0 0.00 0.00 0.00 51 1015.3
20260506192003 87 281 3.0 10.0 0.00 0.00 0.00 51 1015.3
20260506191511 87 226 6.0 10.0 0.00 0.00 0.00 49 1015.4
20260506191004 87 196 2.0 8.0 0.00 0.00 0.00 50 1015.5
20260506190508 87 145 2.0 7.0 0.00 0.00 0.00 50 1015.6
20260506190016 87 234 3.0 7.0 0.00 0.00 0.00 51 1015.7
20260506185504 86 160 4.0 7.0 0.00 0.00 0.00 52 1015.7
20260506185011 86 19 2.0 4.0 0.00 0.00 0.00 51 1015.7
20260506184526 86 259 3.0 7.0 0.00 0.00 0.00 53 1015.8
20260506184008 86 188 4.0 10.0 0.00 0.00 0.00 53 1015.9
20260506183508 86 264 1.0 10.0 0.00 0.00 0.00 55 1015.9
20260506183025 86 272 3.0 9.0 0.00 0.00 0.00 54 1016.0
20260506182506 86 166 3.0 9.0 0.00 0.00 0.00 54 1016.0
20260506182007 85 122 3.0 7.0 0.00 0.00 0.00 53 1016.1
20260506181510 85 242 2.0 6.0 0.00 0.00 0.00 56 1015.9
20260506181004 85 125 2.0 8.0 0.00 0.00 0.00 54 1016.0
20260506180503 85 224 4.0 8.0 0.00 0.00 0.00 54 1016.1
20260506180014 85 163 1.0 9.0 0.00 0.00 0.00 55 1016.2
20260506175504 85 165 6.0 9.0 0.00 0.00 0.00 55 1016.2
20260506175007 85 223 1.0 8.0 0.00 0.00 0.00 56 1016.2
20260506174521 84 188 4.0 10.0 0.00 0.00 0.00 56 1016.2
20260506174010 84 304 1.0 10.0 0.00 0.00 0.00 59 1016.3
20260506173503 83 163 3.0 6.0 0.00 0.00 0.00 59 1016.3
20260506173006 83 254 2.0 6.0 0.00 0.00 0.00 60 1016.4
20260506172503 83 9 1.0 8.0 0.00 0.00 0.00 61 1016.4
20260506172003 83 295 1.0 9.0 0.00 0.00 0.00 60 1016.5
20260506171509 83 288 4.0 9.0 0.00 0.00 0.00 59 1016.5
20260506171002 83 281 2.0 8.0 0.00 0.00 0.00 59 1016.6
20260506170505 83 279 3.0 8.0 0.00 0.00 0.00 59 1016.7
20260506170014 84 241 4.0 9.0 0.00 0.00 0.00 58 1016.7
20260506165503 83 209 4.0 9.0 0.00 0.00 0.00 56 1016.8
20260506165005 83 222 2.0 8.0 0.00 0.00 0.00 58 1016.8
20260506164524 82 304 2.0 7.0 0.00 0.00 0.00 58 1016.8
20260506164004 82 178 3.0 8.0 0.00 0.00 0.00 58 1016.8
20260506163510 82 322 4.0 8.0 0.00 0.00 0.00 60 1016.8
20260506163024 81 319 2.0 6.0 0.00 0.00 0.00 61 1016.9
20260506162507 81 277 3.0 6.0 0.00 0.00 0.00 63 1016.9
20260506162006 81 248 3.0 7.0 0.00 0.00 0.00 61 1016.8
20260506161506 81 259 4.0 9.0 0.00 0.00 0.00 65 1016.9
20260506161007 82 283 3.0 9.0 0.00 0.00 0.00 62 1016.8
20260506160502 82 202 4.0 9.0 0.00 0.00 0.00 61 1016.8
20260506160011 82 128 2.0 7.0 0.00 0.00 0.00 64 1016.8
20260506155503 81 5 1.0 7.0 0.00 0.00 0.00 66 1016.7
20260506155003 80 264 4.0 8.0 0.00 0.00 0.00 66 1016.8
20260506154516 80 306 5.0 8.0 0.00 0.00 0.00 65 1016.8
20260506154007 80 299 4.0 8.0 0.00 0.00 0.00 67 1016.7
20260506153507 80 221 3.0 9.0 0.00 0.00 0.00 68 1016.6
20260506153032 80 178 5.0 11.0 0.00 0.00 0.00 69 1016.5
20260506152506 80 254 7.0 11.0 0.00 0.00 0.00 69 1016.5
20260506152010 79 265 2.0 8.0 0.00 0.00 0.00 72 1016.5
20260506151503 79 158 1.0 8.0 0.00 0.00 0.00 73 1016.6
20260506151002 78 292 2.0 6.0 0.00 0.00 0.00 76 1016.5
20260506150504 78 233 0.0 8.0 0.00 0.00 0.00 75 1016.5
20260506150010 78 227 3.0 9.0 0.00 0.00 0.00 74 1016.5
20260506145504 78 190 5.0 9.0 0.00 0.00 0.00 74 1016.4
20260506145003 77 217 1.0 11.0 0.00 0.00 0.00 76 1016.3
20260506144535 77 149 7.0 11.0 0.00 0.00 0.00 75 1016.2
20260506144007 77 190 3.0 10.0 0.00 0.00 0.00 76 1016.2
20260506143504 77 144 2.0 7.0 0.00 0.00 0.00 79 1016.1
20260506143022 76 211 0.0 7.0 0.00 0.00 0.00 81 1016.1
20260506142505 76 178 4.0 16.0 0.00 0.00 0.00 80 1015.9
20260506142005 75 225 1.0 16.0 0.00 0.00 0.00 81 1015.9
20260506141526 75 138 6.0 11.0 0.00 0.00 0.00 81 1015.9
20260506141006 75 155 1.0 6.0 0.00 0.00 0.00 83 1015.9
20260506140503 74 217 1.0 6.0 0.00 0.00 0.00 82 1015.9
20260506140008 74 282 0.0 9.0 0.00 0.00 0.00 83 1015.8
20260506135504 74 193 5.0 10.0 0.00 0.00 0.00 83 1015.8
20260506135004 74 174 5.0 10.0 0.00 0.00 0.00 84 1015.8
20260506134513 73 207 4.0 11.0 0.00 0.00 0.00 85 1015.7
20260506134004 73 194 7.0 12.0 0.00 0.00 0.00 85 1015.7
20260506133504 73 198 5.0 12.0 0.00 0.00 0.00 86 1015.7
20260506133020 72 136 4.0 8.0 0.00 0.00 0.00 88 1015.7
20260506132505 72 167 2.0 8.0 0.00 0.00 0.00 88 1015.7
20260506132006 72 194 1.0 8.0 0.00 0.00 0.00 88 1015.8
20260506131533 72 198 2.0 8.0 0.00 0.00 0.00 88 1015.7
20260506131007 71 193 3.0 9.0 0.00 0.00 0.00 88 1015.7
20260506130510 71 175 4.0 9.0 0.00 0.00 0.00 88 1015.7
20260506130007 71 168 5.0 8.0 0.00 0.00 0.00 89 1015.7
20260506125504 71 196 3.0 7.0 0.00 0.00 0.00 91 1015.7
20260506125003 71 181 2.0 9.0 0.00 0.00 0.00 92 1015.7
20260506124512 70 191 2.0 9.0 0.00 0.00 0.00 92 1015.5
20260506124003 70 165 5.0 9.0 0.00 0.00 0.00 93 1015.3
20260506123504 70 178 5.0 7.0 0.00 0.00 0.00 93 1015.2
20260506123028 70 152 4.0 9.0 0.00 0.00 0.00 94 1015.2
20260506122505 69 170 4.0 9.0 0.00 0.00 0.00 94 1015.1
20260506122012 69 151 4.0 9.0 0.00 0.00 0.00 94 1014.9
20260506121522 69 176 4.0 8.0 0.00 0.00 0.00 94 1014.7
20260506121005 69 178 3.0 9.0 0.00 0.00 0.00 94 1014.7
20260506120507 69 161 5.0 10.0 0.00 0.00 0.00 95 1014.5
20260506120032 69 200 4.0 10.0 0.00 0.00 0.00 95 1014.3
20260506115514 69 203 4.0 8.0 0.00 0.00 0.00 95 1014.2
20260506115003 69 169 3.0 6.0 0.00 0.00 0.00 95 1014.2
20260506114518 69 172 2.0 7.0 0.00 0.00 0.00 95 1014.1
20260506114007 69 174 2.0 7.0 0.00 0.00 0.00 95 1014.1
20260506113504 69 178 4.0 7.0 0.00 0.00 0.00 96 1014.1
20260506113014 69 175 2.0 10.0 0.00 0.00 0.00 96 1014.1
20260506112503 69 161 4.0 10.0 0.00 0.00 0.00 96 1014.1
20260506112008 69 168 4.0 6.0 0.00 0.00 0.00 96 1014.1
20260506111522 69 161 4.0 8.0 0.00 0.00 0.00 96 1014.0
20260506111013 69 191 5.0 8.0 0.00 0.00 0.00 96 1014.0
20260506110513 69 180 4.0 8.0 0.00 0.00 0.00 96 1013.9
20260506110037 68 173 4.0 8.0 0.00 0.00 0.00 96 1013.8
20260506105506 68 182 3.0 10.0 0.00 0.00 0.00 96 1013.7
20260506105008 68 192 5.0 10.0 0.00 0.00 0.00 96 1013.6
20260506104507 68 174 4.0 10.0 0.00 0.00 0.00 96 1013.5
20260506104003 68 190 5.0 11.0 0.00 0.00 0.00 96 1013.6
20260506103503 68 171 6.0 12.0 0.00 0.00 0.00 96 1013.6
20260506103005 68 159 5.0 12.0 0.00 0.00 0.00 96 1013.5
20260506102503 68 175 3.0 10.0 0.00 0.00 0.00 96 1013.5
20260506102003 68 165 4.0 10.0 0.00 0.00 0.00 96 1013.6
20260506101504 68 173 6.0 10.0 0.00 0.00 0.00 96 1013.5
20260506101003 68 211 5.0 8.0 0.00 0.00 0.00 96 1013.5
20260506100504 68 143 3.0 10.0 0.00 0.00 0.00 96 1013.5
20260506100015 68 169 5.0 10.0 0.00 0.00 0.00 96 1013.5
20260506095503 69 181 5.0 10.0 0.00 0.00 0.00 96 1013.5
20260506095003 68 179 6.0 10.0 0.00 0.00 0.00 96 1013.5
20260506094506 68 179 3.0 9.0 0.00 0.00 0.00 96 1013.6
20260506094002 68 167 4.0 7.0 0.00 0.00 0.00 96 1013.6
20260506093503 68 171 3.0 6.0 0.00 0.00 0.00 96 1013.7
20260506093007 68 167 3.0 5.0 0.00 0.00 0.00 96 1013.7
20260506092503 68 203 3.0 7.0 0.00 0.00 0.00 96 1013.7
20260506092003 68 175 4.0 7.0 0.00 0.00 0.00 96 1013.8
20260506091509 68 204 4.0 7.0 0.00 0.00 0.00 96 1013.8